Location: Unspecified
(47.9110°N, 14.3980°E)
Time: 04:12:08
(UTC+00:00)

Daily predictions for brighter satellites

Satellite Brightness Start Highest point End
(mag) Time Altitude Azimuth Time Altitude Azimuth Time Altitude Azimuth
Cosmos 2082 Rocket 4.2 02:03:28 19° N 02:05:59 25° NE 02:10:36 10° E
Cosmos 2278 Rocket 3.9 02:14:55 27° E 02:14:55 27° E 02:19:25 10° NE
CZ-4C R/B 3.4 02:30:13 36° ENE 02:30:13 36° ENE 02:33:43 10° NE
CENTAUR R/B 3.0 02:29:43 54° E 02:29:43 54° E 02:35:41 10° NE
Lacrosse 5 rocket 4.2 02:49:32 12° NE 02:49:32 12° NE 02:49:50 10° NE
NOSS 3-2 (A) 3.6 02:52:21 58° ESE 02:52:21 58° ESE 02:58:09 10° NE
Envisat 4.2 03:06:16 10° N 03:09:04 32° N 03:09:04 32° N
Cosmos 1727 Rocket 4.0 03:09:15 45° S 03:11:20 80° E 03:17:41 10° N
Cosmos 1455 Rocket 3.9 03:13:01 46° ESE 03:13:24 47° E 03:17:37 10° NNE
CZ-2C R/B 3.8 03:15:40 10° N 03:17:40 25° N 03:17:40 25° N
ATLAS CENTAUR R/B 4.0 03:18:59 10° SE 03:20:23 12° ESE 03:21:47 10° E
Cosmos 1459 Rocket 4.1 03:17:13 10° N 03:23:35 74° E 03:29:48 10° SSE
Cosmos 2100 Rocket 4.0 03:18:17 10° N 03:24:32 81° E 03:30:49 10° S
NOSS 3-2 (C) 3.9 03:24:27 31° S 03:26:41 49° ESE 03:32:34 10° NE
ISS -2.2 03:32:40 36° E 03:32:40 36° E 03:34:51 10° ENE
H-2A R/B 2.5 03:29:28 10° NNE 03:34:42 59° E 03:39:44 10° S
Genesis I 3.6 03:38:13 56° ENE 03:38:13 56° ENE 03:41:17 10° NE
Cosmos 1802 Rocket 4.1 03:31:48 10° N 03:38:04 74° E 03:44:12 10° SSE
USA 305 4.1 03:43:03 24° ENE 03:43:03 24° ENE 03:44:16 10° ENE
SeaSat 1 3.7 03:37:54 10° N 03:41:14 26° NNW 03:41:14 26° NNW
NOSS 3-3 (C) 4.5 03:37:15 19° NW 03:43:10 78° SW 03:51:51 10° SSE
Cosmos 1331 Rocket 4.3 03:41:01 20° S 03:44:36 66° ESE 03:49:44 10° NNE
Cosmos 1850 Rocket 3.9 03:39:53 10° NNW 03:45:12 81° WSW 03:50:32 10° SSE
Cosmos 2058 3.3 03:43:02 10° N 03:47:09 62° ENE 03:51:14 10° SSE
Cosmos 968 Rocket 3.7 03:43:16 10° NNW 03:48:28 69° ENE 03:53:35 10° SSE
Cosmos 1943 Rocket 2.2 03:45:06 23° SSW 03:48:34 75° ESE 03:54:05 10° NNE
Meteor 2-13 Rocket 4.3 03:43:34 10° S 03:49:37 86° W 03:55:45 10° N
Cosmos 2082 Rocket 2.1 03:45:23 12° NNW 03:50:39 73° WSW 03:56:20 10° SSE
H-2A R/B 2.5 03:48:55 10° NNE 03:52:15 73° E 03:52:27 69° SE
Cosmos 1626 Rocket 4.2 03:51:31 10° N 03:55:50 57° ENE 04:00:05 10° SSE
Cosmos 2278 Rocket 2.3 03:56:47 40° WSW 03:58:29 55° WNW 04:04:05 10° NNE
Cosmos 2344 3.5 03:56:43 32° WSW 04:00:13 62° NW 04:07:44 10° NE
Cosmos 1110 Rocket 3.9 03:56:50 21° SSW 04:00:23 86° WNW 04:05:37 10° NNE
COSMOS 2406 3.1 03:55:58 10° NNW 04:01:42 68° WSW 04:07:24 10° SSE
Cosmos 2123 Rocket 3.9 03:58:12 10° S 04:04:22 88° W 04:10:36 10° N
Cosmos 1544 Rocket 4.0 04:00:26 10° S 04:04:47 65° E 04:09:12 10° NNE
Cosmos 2233 Rocket 4.4 03:59:05 10° N 04:05:20 67° ENE 04:11:29 10° SSE
Cosmos 1758 Rocket 4.5 04:03:17 10° N 04:07:31 49° ENE 04:11:41 10° SSE
ARIANE 5 R/B 2.6 04:04:01 10° NNE 04:09:03 75° ESE 04:14:03 10° S
Cosmos 1484 Rocket 3.4 04:07:50 10° N 04:10:55 36° NW 04:10:55 36° NW
COSMO-SKYMED 1 2.5 04:07:07 10° SSE 04:11:27 87° ENE 04:15:50 10° NNW
JB-3 4.3 04:08:11 10° SSE 04:12:09 86° ENE 04:16:12 10° NNW
Cosmos 1864 Rocket 4.4 04:08:16 10° NNW 04:14:36 70° W 04:20:54 10° S
Cosmos 2369 Rocket 4.2 04:10:25 10° SSE 04:15:17 30° ESE 04:20:11 10° NE
CZ-4C R/B 3.0 04:15:19 26° WNW 04:17:04 31° NNW 04:22:32 10° NNE
Cosmos 1602 Rocket 4.2 04:13:41 10° N 04:18:04 58° ENE 04:22:23 10° SSE
USA 234 3.5 04:12:53 10° ENE 04:19:25 70° SE 04:25:54 10° SW
CENTAUR R/B 3.2 04:16:52 26° W 04:19:51 41° NNW 04:26:53 10° NE
SJ 16-02 1.8 04:15:42 10° NNW 04:20:05 64° ENE 04:24:26 10° SSE
Cosmos 2173 Rocket 4.2 04:15:08 10° NNW 04:20:49 42° W 04:26:31 10° SSW
Cosmos 2228 3.5 04:17:08 10° S 04:21:20 61° E 04:25:37 10° NNE
Cosmos 1606 3.8 04:18:00 10° SSE 04:21:22 43° E 04:24:47 10° NNE
Meteor 2-15 Rocket 4.4 04:18:16 10° NNW 04:24:23 80° W 04:30:31 10° S
USA 238 DEB 3.7 04:19:05 10° SSW 04:25:20 76° SE 04:32:08 10° NE
USA 238 3.7 04:19:17 10° SSW 04:25:33 75° SE 04:32:21 10° NE
Lacrosse 5 rocket 2.9 04:24:31 15° NNW 04:25:55 19° N 04:28:32 10° NE
USA 307 1.9 04:27:18 46° W 04:27:54 60° NNW 04:30:33 10° NE
ERS-1 4.4 04:25:00 10° NNE 04:30:11 82° WNW 04:35:17 10° SSW
Cosmos 2016 Rocket 4.0 04:24:27 10° NNW 04:30:38 57° W 04:36:43 10° SSW
Cosmos 1939 Rocket 3.1 04:26:53 10° N 04:30:45 44° WNW 04:34:28 11° SW
CZ-2D R/B 3.5 04:26:37 10° NNE 04:30:49 83° ESE 04:34:52 10° SSW
Cosmos 1452 Rocket 3.8 04:30:33 16° SW 04:34:23 44° WNW 04:39:28 10° NNE
Cosmos 405 Rocket 2.4 04:33:36 10° SSW 04:37:08 67° WNW 04:40:45 10° N
Cosmos 1725 Rocket 4.2 04:33:00 10° NNW 04:39:02 50° W 04:45:02 10° SSW
SJ-12 3.8 04:38:26 10° NNE 04:42:26 87° W 04:46:23 10° SSW
Cosmos 1437 Rocket 2.6 04:38:51 10° NNW 04:42:30 55° W 04:46:05 10° S
NOSS 3-2 (A) 4.1 04:39:44 19° W 04:43:15 37° NNW 04:49:21 10° NE
Cosmos 2061 Rocket 4.0 04:37:30 10° NNW 04:43:37 59° W 04:49:44 10° S
Okean 1-7 Rocket 3.5 04:43:04 10° NNW 04:47:26 63° W 04:51:45 10° S
GP-B 4.5 04:45:42 10° NNE 04:49:56 43° E 04:54:08 10° SSE
Spot 4 Rocket 4.3 04:45:01 10° NNE 04:50:10 71° ESE 04:55:16 10° S
Helios 1A 3.4 04:46:31 10° SSW 04:50:19 37° W 04:54:09 10° NNW
Cosmos 1455 Rocket 4.4 04:50:07 17° W 04:51:28 19° WNW 04:54:38 10° NNW
Cosmos 1825 Rocket 4.0 04:50:28 10° N 04:54:50 65° ENE 04:59:09 10° SSE
Meteor 2-1 Rocket 4.5 04:50:30 10° SSW 04:56:16 54° WNW 05:02:05 10° N
ATLAS CENTAUR R/B 0.9 04:54:11 10° SW 04:57:45 69° NW 05:01:19 10° NE
SKYMED 2 4.3 04:55:50 10° SSW 04:59:41 31° W 05:03:35 10° NNW
ARGOS 3.2 04:57:10 10° N 05:02:29 57° WNW 05:07:46 10° SSW
Meteor 2-3 Rocket 3.8 04:58:16 10° NNW 05:03:49 58° W 05:09:17 10° S
SL-08 R/B 3.6 05:00:55 10° S 05:05:41 49° W 05:10:29 10° NNW
ISS -3.2 05:05:33 13° W 05:08:20 46° N 05:11:37 10° ENE
Cosmos 1656 Rocket 3.7 05:04:03 10° SSW 05:09:45 90° NW 05:15:27 10° NNE
Helios 1B rocket 3.5 05:08:58 10° NNE 05:12:46 48° E 05:16:34 10° S
H-2A R/B 3.2 05:09:36 10° N 05:13:39 23° WNW 05:17:36 10° WSW
USA 305 2.9 05:13:24 11° WNW 05:15:33 25° NNW 05:17:35 10° NE
NOSS 3-2 (C) 3.9 05:12:28 10° WSW 05:17:41 41° NW 05:23:53 10° NE
USA 306 3.1 05:16:19 10° WNW 05:17:52 19° N 05:19:35 10° NE
Timation 1 Rocket 4.3 05:12:04 10° NNW 05:18:05 76° WSW 05:24:01 10° SSE
PSLV R/B 3.5 05:16:27 10° N 05:20:38 59° WNW 05:24:49 10° SSW
SJ-11-01 4.4 05:21:08 10° N 05:25:40 54° WNW 05:30:11 10° SSW
Cosmos 1607 4.3 05:20:40 10° NW 05:26:55 51° WSW 05:33:02 10° SSE
